Terug naar catalogus

USA 369

ActiefMilitairVLEO
NORAD 59829·PAYLOAD·🇺🇸 United States

Gelanceerd May 22, 2024 vanaf Vandenberg Space Force Base

Loading…

Volgende Passages (komende 24 uur)

TLE

VerouderdSource: Mike McCants

Epoch: Aug 17, 2026, 22:06 UTC

1 59829U 24096R   26229.92115996 0.00000000  00000-0  00000-0 0    00
2 59829  70.0176 157.0983 0003000  53.4135 306.5865 14.96714006    04

Volg USA 369 in realtime met AllMySat

Download on the App Store